Year,Month,Day,Hour,Minute,Value (Times are PST for temperature in C)
2015,05,21,00,00,19.50
2015,05,21,00,01,19.40
2015,05,21,00,02,19.30
2015,05,21,00,03,19.30
2015,05,21,00,04,19.30
2015,05,21,00,05,19.20
2015,05,21,00,06,19.20
2015,05,21,00,07,19.20
2015,05,21,00,08,19.20
2015,05,21,00,09,19.20
2015,05,21,00,10,19.10
2015,05,21,00,11,19.10
2015,05,21,00,12,19.20
2015,05,21,00,13,19.30
2015,05,21,00,14,19.30
2015,05,21,00,15,19.40
2015,05,21,00,16,19.60
2015,05,21,00,17,19.70
2015,05,21,00,18,19.90
2015,05,21,00,19,20.10
2015,05,21,00,20,20.20
2015,05,21,00,21,20.30
2015,05,21,00,22,20.40
2015,05,21,00,23,20.60
2015,05,21,00,24,20.70
2015,05,21,00,25,20.80
2015,05,21,00,26,20.90
2015,05,21,00,27,21.00
2015,05,21,00,28,21.10
2015,05,21,00,29,21.20
2015,05,21,00,30,21.20
2015,05,21,00,31,21.30
2015,05,21,00,32,21.30
2015,05,21,00,33,21.40
2015,05,21,00,34,21.40
2015,05,21,00,35,21.50
2015,05,21,00,36,21.50
2015,05,21,00,37,21.60
2015,05,21,00,38,21.60
2015,05,21,00,39,21.60
2015,05,21,00,40,21.60
2015,05,21,00,41,21.60
2015,05,21,00,42,21.60
2015,05,21,00,43,21.60
2015,05,21,00,44,21.60
2015,05,21,00,45,21.60
2015,05,21,00,46,21.60
2015,05,21,00,47,21.60
2015,05,21,00,48,21.50
2015,05,21,00,49,21.50
2015,05,21,00,50,21.40
2015,05,21,00,51,21.40
2015,05,21,00,52,21.40
2015,05,21,00,53,21.30
2015,05,21,00,54,21.30
2015,05,21,00,55,21.30
2015,05,21,00,56,21.30
2015,05,21,00,57,21.20
2015,05,21,00,58,21.20
2015,05,21,00,59,21.20
2015,05,21,01,00,21.10
2015,05,21,01,01,21.10
2015,05,21,01,02,21.10
2015,05,21,01,03,21.10
2015,05,21,01,04,21.00
2015,05,21,01,05,21.00
2015,05,21,01,06,20.90
2015,05,21,01,07,20.90
2015,05,21,01,08,20.90
2015,05,21,01,09,20.80
2015,05,21,01,10,20.80
2015,05,21,01,11,20.80
2015,05,21,01,12,20.70
2015,05,21,01,13,20.70
2015,05,21,01,14,20.70
2015,05,21,01,15,20.70
2015,05,21,01,16,20.70
2015,05,21,01,17,20.70
2015,05,21,01,18,20.70
2015,05,21,01,19,20.60
2015,05,21,01,20,20.60
2015,05,21,01,21,20.60
2015,05,21,01,22,20.60
2015,05,21,01,23,20.60
2015,05,21,01,24,20.60
2015,05,21,01,25,20.50
2015,05,21,01,26,20.50
2015,05,21,01,27,20.50
2015,05,21,01,28,20.50
2015,05,21,01,29,20.50
2015,05,21,01,30,20.50
2015,05,21,01,31,20.50
2015,05,21,01,32,20.40
2015,05,21,01,33,20.40
2015,05,21,01,34,20.40
2015,05,21,01,35,20.40
2015,05,21,01,36,20.40
2015,05,21,01,37,20.30
2015,05,21,01,38,20.30
2015,05,21,01,39,20.30
2015,05,21,01,40,20.30
2015,05,21,01,41,20.30
2015,05,21,01,42,20.30
2015,05,21,01,43,20.30
2015,05,21,01,44,20.30
2015,05,21,01,45,20.30
2015,05,21,01,46,20.30
2015,05,21,01,47,20.20
2015,05,21,01,48,20.20
2015,05,21,01,49,20.20
2015,05,21,01,50,20.20
2015,05,21,01,51,20.20
2015,05,21,01,52,20.20
2015,05,21,01,53,20.20
2015,05,21,01,54,20.20
2015,05,21,01,55,20.20
2015,05,21,01,56,20.20
2015,05,21,01,57,20.20
2015,05,21,01,58,20.20
2015,05,21,01,59,20.20
2015,05,21,02,00,20.20
2015,05,21,02,01,20.10
2015,05,21,02,02,20.10
2015,05,21,02,03,20.10
2015,05,21,02,04,20.10
2015,05,21,02,05,20.10
2015,05,21,02,06,20.10
2015,05,21,02,07,20.10
2015,05,21,02,08,20.10
2015,05,21,02,09,20.10
2015,05,21,02,10,20.10
2015,05,21,02,11,20.10
2015,05,21,02,12,20.00
2015,05,21,02,13,20.00
2015,05,21,02,14,20.00
2015,05,21,02,15,20.00
2015,05,21,02,16,20.00
2015,05,21,02,17,20.00
2015,05,21,02,18,20.00
2015,05,21,02,19,20.00
2015,05,21,02,20,19.90
2015,05,21,02,21,19.90
2015,05,21,02,22,19.90
2015,05,21,02,23,19.90
2015,05,21,02,24,19.90
2015,05,21,02,25,19.90
2015,05,21,02,26,19.90
2015,05,21,02,27,19.90
2015,05,21,02,28,19.80
2015,05,21,02,29,19.80
2015,05,21,02,30,19.80
2015,05,21,02,31,19.80
2015,05,21,02,32,19.80
2015,05,21,02,33,19.80
2015,05,21,02,34,19.80
2015,05,21,02,35,19.70
2015,05,21,02,36,19.70
2015,05,21,02,37,19.70
2015,05,21,02,38,19.70
2015,05,21,02,39,19.70
2015,05,21,02,40,19.70
2015,05,21,02,41,19.70
2015,05,21,02,42,19.60
2015,05,21,02,43,19.60
2015,05,21,02,44,19.60
2015,05,21,02,45,19.60
2015,05,21,02,46,19.60
2015,05,21,02,47,19.60
2015,05,21,02,48,19.60
2015,05,21,02,49,19.50
2015,05,21,02,50,19.50
2015,05,21,02,51,19.50
2015,05,21,02,52,19.50
2015,05,21,02,53,19.50
2015,05,21,02,54,19.50
2015,05,21,02,55,19.50
2015,05,21,02,56,19.50
2015,05,21,02,57,19.50
2015,05,21,02,58,19.50
2015,05,21,02,59,19.50
2015,05,21,03,00,19.50
2015,05,21,03,01,19.40
2015,05,21,03,02,19.40
2015,05,21,03,03,19.40
2015,05,21,03,04,19.40
2015,05,21,03,05,19.40
2015,05,21,03,06,19.40
2015,05,21,03,07,19.40
2015,05,21,03,08,19.40
2015,05,21,03,09,19.40
2015,05,21,03,10,19.40
2015,05,21,03,11,19.40
2015,05,21,03,12,19.40
2015,05,21,03,13,19.40
2015,05,21,04,06,18.30
2015,05,21,04,07,18.30
2015,05,21,04,08,18.30
2015,05,21,04,09,18.30
2015,05,21,04,10,18.30
2015,05,21,04,11,18.30
2015,05,21,04,12,18.30
2015,05,21,04,13,18.30
2015,05,21,04,14,18.30
2015,05,21,04,15,18.30
2015,05,21,04,16,18.40
2015,05,21,04,17,18.30
2015,05,21,04,18,18.30
2015,05,21,04,19,18.30
2015,05,21,04,20,18.30
2015,05,21,04,21,18.30
2015,05,21,04,22,18.30
2015,05,21,04,23,18.20
2015,05,21,04,24,18.20
2015,05,21,04,25,18.20
2015,05,21,04,26,18.20
2015,05,21,04,27,18.10
2015,05,21,04,28,18.10
2015,05,21,04,29,18.00
2015,05,21,04,30,18.00
2015,05,21,04,31,17.90
2015,05,21,04,32,17.90
2015,05,21,04,33,17.90
2015,05,21,04,34,17.80
2015,05,21,04,35,17.80
2015,05,21,04,36,17.90
2015,05,21,04,37,17.90
2015,05,21,04,38,18.00
2015,05,21,04,39,18.00
2015,05,21,04,40,18.00
2015,05,21,04,41,18.00
2015,05,21,04,42,18.00
2015,05,21,04,43,18.00
2015,05,21,04,44,18.00
2015,05,21,04,45,18.00
2015,05,21,04,46,17.90
2015,05,21,04,47,17.90
2015,05,21,04,48,17.90
2015,05,21,04,49,17.90
2015,05,21,04,50,17.90
2015,05,21,04,51,17.90
2015,05,21,04,52,17.90
2015,05,21,04,53,17.90
2015,05,21,04,54,17.90
2015,05,21,04,55,17.90
2015,05,21,04,56,17.90
2015,05,21,04,57,17.90
2015,05,21,04,58,17.90
2015,05,21,04,59,17.90
2015,05,21,05,00,17.90
2015,05,21,05,01,17.90
2015,05,21,05,02,17.90
2015,05,21,05,03,17.90
2015,05,21,05,04,17.80
2015,05,21,05,05,17.80
2015,05,21,05,06,17.80
2015,05,21,05,07,17.80
2015,05,21,05,08,17.80
2015,05,21,05,09,17.80
2015,05,21,05,10,17.70
2015,05,21,05,11,17.70
2015,05,21,05,12,17.70
2015,05,21,05,13,17.70
2015,05,21,05,14,17.70
2015,05,21,05,15,17.70
2015,05,21,05,16,17.70
2015,05,21,05,17,17.70
2015,05,21,05,18,17.70
2015,05,21,05,19,17.70
2015,05,21,05,20,17.70
2015,05,21,05,21,17.70
2015,05,21,05,22,17.70
2015,05,21,05,23,17.70
2015,05,21,05,24,17.70
2015,05,21,05,25,17.70
2015,05,21,05,26,17.70
2015,05,21,05,27,17.70
2015,05,21,05,28,17.70
2015,05,21,05,29,17.70
2015,05,21,05,30,17.60
2015,05,21,05,31,17.60
2015,05,21,05,32,17.60
2015,05,21,05,33,17.60
2015,05,21,05,34,17.60
2015,05,21,05,35,17.60
2015,05,21,05,36,17.50
2015,05,21,05,37,17.50
2015,05,21,05,38,17.50
2015,05,21,05,39,17.50
2015,05,21,05,40,17.40
2015,05,21,05,41,17.40
2015,05,21,05,42,17.40
2015,05,21,05,43,17.40
2015,05,21,05,44,17.40
2015,05,21,05,45,17.40
2015,05,21,05,46,17.30
2015,05,21,05,47,17.30
2015,05,21,05,48,17.30
2015,05,21,05,49,17.30
2015,05,21,05,50,17.30
2015,05,21,05,51,17.30
2015,05,21,05,52,17.30
2015,05,21,05,53,17.20
2015,05,21,05,54,17.20
2015,05,21,05,55,17.20
2015,05,21,05,56,17.20
2015,05,21,05,57,17.20
2015,05,21,05,58,17.20
2015,05,21,05,59,17.20
2015,05,21,06,00,17.20
2015,05,21,06,01,17.10
2015,05,21,06,02,17.10
2015,05,21,06,03,17.10
2015,05,21,06,04,17.10
2015,05,21,06,05,17.00
2015,05,21,06,06,17.00
2015,05,21,06,07,17.00
2015,05,21,06,08,16.90
2015,05,21,06,09,16.90
2015,05,21,06,10,16.90
2015,05,21,06,11,16.90
2015,05,21,06,12,16.90
2015,05,21,06,13,16.90
2015,05,21,06,14,16.90
2015,05,21,06,15,16.90
2015,05,21,06,16,16.90
2015,05,21,06,17,16.80
2015,05,21,06,18,16.90
2015,05,21,06,19,16.80
2015,05,21,06,20,16.80
2015,05,21,06,21,16.90
2015,05,21,06,22,16.90
2015,05,21,06,23,16.90
2015,05,21,06,24,16.90
2015,05,21,06,25,16.90
2015,05,21,06,26,17.00
2015,05,21,06,27,17.00
2015,05,21,06,28,17.00
2015,05,21,06,29,17.00
2015,05,21,06,30,17.10
2015,05,21,06,31,17.10
2015,05,21,06,32,17.10
2015,05,21,06,33,17.10
2015,05,21,06,34,17.10
2015,05,21,06,35,17.10
2015,05,21,06,36,17.10
2015,05,21,06,37,17.20
2015,05,21,06,38,17.20
2015,05,21,06,39,17.20
2015,05,21,06,40,17.20
2015,05,21,06,41,17.20
2015,05,21,06,42,17.20
2015,05,21,06,43,17.20
2015,05,21,06,44,17.20
2015,05,21,06,45,17.20
2015,05,21,06,46,17.20
2015,05,21,06,47,17.20
2015,05,21,06,48,17.30
2015,05,21,06,49,17.30
2015,05,21,06,50,17.30
2015,05,21,06,51,17.30
2015,05,21,06,52,17.30
2015,05,21,06,53,17.40
2015,05,21,06,54,17.40
2015,05,21,06,55,17.40
2015,05,21,06,56,17.40
2015,05,21,06,57,17.50
2015,05,21,06,58,17.50
2015,05,21,06,59,17.50
2015,05,21,07,00,17.60
2015,05,21,07,01,17.60
2015,05,21,07,02,17.60
2015,05,21,07,03,17.60
2015,05,21,07,04,17.60
2015,05,21,07,05,17.60
2015,05,21,07,06,17.70
2015,05,21,07,07,17.70
2015,05,21,07,08,17.70
2015,05,21,07,09,17.70
2015,05,21,07,10,17.70
2015,05,21,07,11,17.70
2015,05,21,07,12,17.70
2015,05,21,07,13,17.70
2015,05,21,07,14,17.70
2015,05,21,07,15,17.70
2015,05,21,07,16,17.70
2015,05,21,07,17,17.70
2015,05,21,07,18,17.70
2015,05,21,07,19,17.80
2015,05,21,07,20,17.80
2015,05,21,07,21,17.80
2015,05,21,07,22,17.80
2015,05,21,07,23,17.80
2015,05,21,07,24,17.80
2015,05,21,07,25,17.90
2015,05,21,07,26,17.90
2015,05,21,07,27,17.90
2015,05,21,07,28,17.90
2015,05,21,07,29,18.00
2015,05,21,07,30,18.00
2015,05,21,07,31,18.00
2015,05,21,07,32,18.00
2015,05,21,07,33,18.00
2015,05,21,07,34,18.10
2015,05,21,07,35,18.10
2015,05,21,07,36,18.10
2015,05,21,07,37,18.10
2015,05,21,07,38,18.10
2015,05,21,07,39,18.20
2015,05,21,07,40,18.20
2015,05,21,07,41,18.20
2015,05,21,07,42,18.20
2015,05,21,07,43,18.20
2015,05,21,07,44,18.20
2015,05,21,07,45,18.30
2015,05,21,07,46,18.30
2015,05,21,07,47,18.30
2015,05,21,07,48,18.30
2015,05,21,07,49,18.30
2015,05,21,07,50,18.30
2015,05,21,07,51,18.40
2015,05,21,07,52,18.40
2015,05,21,07,53,18.40
2015,05,21,07,54,18.40
2015,05,21,07,55,18.50
2015,05,21,07,56,18.50
2015,05,21,07,57,18.40
2015,05,21,07,58,18.40
2015,05,21,07,59,18.40
2015,05,21,08,00,18.40
2015,05,21,08,01,18.40
2015,05,21,08,02,18.40
2015,05,21,08,03,18.30
2015,05,21,08,04,18.30
2015,05,21,08,05,18.30
2015,05,21,08,06,18.30
2015,05,21,08,07,18.30
2015,05,21,08,08,18.30
2015,05,21,08,09,18.30
2015,05,21,08,10,18.20
2015,05,21,08,11,18.20
2015,05,21,08,12,18.30
2015,05,21,08,13,18.30
2015,05,21,08,14,18.30
2015,05,21,08,15,18.30
2015,05,21,08,16,18.40
2015,05,21,08,17,18.40
2015,05,21,08,18,18.40
2015,05,21,08,19,18.40
2015,05,21,08,20,18.40
2015,05,21,08,21,18.40
2015,05,21,08,22,18.50
2015,05,21,08,23,18.50
2015,05,21,08,24,18.60
2015,05,21,08,25,18.60
2015,05,21,08,26,18.60
2015,05,21,08,27,18.60
2015,05,21,08,28,18.50
2015,05,21,08,29,18.50
2015,05,21,08,30,18.50
2015,05,21,08,31,18.50
2015,05,21,08,32,18.50
2015,05,21,08,33,18.50
2015,05,21,08,34,18.50
2015,05,21,08,35,18.60
2015,05,21,08,36,18.60
2015,05,21,08,37,18.50
2015,05,21,08,38,18.50
2015,05,21,08,39,18.50
2015,05,21,08,40,18.50
2015,05,21,08,41,18.40
2015,05,21,08,42,18.40
2015,05,21,08,43,18.40
2015,05,21,08,44,18.40
2015,05,21,08,45,18.40
2015,05,21,08,46,18.40
2015,05,21,08,47,18.30
2015,05,21,08,48,18.30
2015,05,21,08,49,18.20
2015,05,21,08,50,18.20
2015,05,21,08,51,18.20
2015,05,21,08,52,18.20
2015,05,21,08,53,18.20
2015,05,21,08,54,18.30
2015,05,21,08,55,18.30
2015,05,21,08,56,18.30
2015,05,21,08,57,18.30
2015,05,21,08,58,18.30
2015,05,21,08,59,18.30
2015,05,21,09,00,18.20
2015,05,21,09,01,18.20
2015,05,21,09,02,18.30
2015,05,21,09,03,18.20
2015,05,21,09,04,18.20
2015,05,21,09,05,18.20
2015,05,21,09,06,18.20
2015,05,21,09,07,18.20
2015,05,21,09,08,18.20
2015,05,21,09,09,18.20
2015,05,21,09,10,18.20
2015,05,21,09,11,18.20
2015,05,21,09,12,18.20
2015,05,21,09,13,18.30
2015,05,21,09,14,18.30
2015,05,21,09,15,18.30
2015,05,21,09,16,18.30
2015,05,21,09,17,18.40
2015,05,21,09,18,18.40
2015,05,21,09,19,18.30
2015,05,21,09,20,18.30
2015,05,21,09,21,18.30
2015,05,21,09,22,18.20
2015,05,21,09,23,18.20
2015,05,21,09,24,18.20
2015,05,21,09,25,18.20
2015,05,21,09,26,18.20
2015,05,21,09,27,18.20
2015,05,21,09,28,18.10
2015,05,21,09,29,18.10
2015,05,21,09,30,18.10
2015,05,21,09,31,18.10
2015,05,21,09,32,18.00
2015,05,21,09,33,18.00
2015,05,21,09,34,18.00
2015,05,21,09,35,18.00
2015,05,21,09,36,18.00
2015,05,21,09,37,18.00
2015,05,21,09,38,18.00
2015,05,21,09,39,18.00
2015,05,21,09,40,18.00
2015,05,21,09,41,18.10
2015,05,21,09,42,18.20
2015,05,21,09,43,18.30
2015,05,21,09,44,18.30
2015,05,21,09,45,18.40
2015,05,21,09,46,18.50
2015,05,21,09,47,18.50
2015,05,21,09,48,18.60
2015,05,21,09,49,18.60
2015,05,21,09,50,18.70
2015,05,21,09,51,18.70
2015,05,21,09,52,18.80
2015,05,21,09,53,18.80
2015,05,21,09,54,18.90
2015,05,21,09,55,19.00
2015,05,21,09,56,19.10
2015,05,21,09,57,19.10
2015,05,21,09,58,19.20
2015,05,21,09,59,19.20
2015,05,21,10,00,19.20
2015,05,21,10,01,19.30
2015,05,21,10,02,19.40
2015,05,21,10,03,19.50
2015,05,21,10,04,19.50
2015,05,21,10,05,19.70
2015,05,21,10,06,19.80
2015,05,21,10,07,19.80
2015,05,21,10,08,19.90
2015,05,21,10,09,19.90
2015,05,21,10,10,20.00
2015,05,21,10,11,20.10
2015,05,21,10,12,20.20
2015,05,21,10,13,20.20
2015,05,21,10,14,20.20
2015,05,21,10,15,20.20
2015,05,21,10,16,20.20
2015,05,21,10,17,20.20
2015,05,21,10,18,20.20
2015,05,21,10,19,20.30
2015,05,21,10,20,20.30
2015,05,21,10,21,20.30
2015,05,21,10,22,20.40
2015,05,21,10,23,20.50
2015,05,21,10,24,20.50
2015,05,21,10,25,20.60
2015,05,21,10,26,20.60
2015,05,21,10,27,20.60
2015,05,21,10,28,20.60
2015,05,21,10,29,20.70
2015,05,21,10,30,20.70
2015,05,21,10,31,20.70
2015,05,21,10,32,20.80
2015,05,21,10,33,20.80
2015,05,21,10,34,20.80
2015,05,21,10,35,20.80
2015,05,21,10,36,20.80
2015,05,21,10,37,20.80
2015,05,21,10,38,20.90
2015,05,21,10,39,20.90
2015,05,21,10,40,21.00
2015,05,21,10,41,21.00
2015,05,21,10,42,21.00
2015,05,21,10,43,21.00
2015,05,21,10,44,21.00
2015,05,21,10,45,21.00
2015,05,21,10,46,20.90
2015,05,21,10,47,21.00
2015,05,21,10,48,21.00
2015,05,21,10,49,21.10
2015,05,21,10,50,21.10
2015,05,21,10,51,21.10
2015,05,21,10,52,21.10
2015,05,21,10,53,21.10
2015,05,21,10,54,21.20
2015,05,21,10,55,21.20
2015,05,21,10,56,21.20
2015,05,21,10,57,21.20
2015,05,21,10,58,21.30
2015,05,21,10,59,21.30
2015,05,21,11,00,21.30
2015,05,21,11,01,21.30
2015,05,21,11,02,21.30
2015,05,21,11,03,21.30
2015,05,21,11,04,21.40
2015,05,21,11,05,21.40
2015,05,21,11,06,21.40
2015,05,21,11,07,21.50
2015,05,21,11,08,21.50
2015,05,21,11,09,21.50
2015,05,21,11,10,21.50
2015,05,21,11,11,21.50
2015,05,21,11,12,21.60
2015,05,21,11,13,21.60
2015,05,21,11,14,21.60
2015,05,21,11,15,21.60
2015,05,21,11,16,21.50
2015,05,21,11,17,21.50
2015,05,21,11,18,21.50
2015,05,21,11,19,21.60
2015,05,21,11,20,21.60
2015,05,21,11,21,21.60
2015,05,21,11,22,21.60
2015,05,21,11,23,21.70
2015,05,21,11,24,21.80
2015,05,21,11,25,21.80
2015,05,21,11,26,21.90
2015,05,21,11,27,21.90
2015,05,21,11,28,21.90
2015,05,21,11,29,21.90
2015,05,21,11,30,21.90
2015,05,21,11,31,21.80
2015,05,21,11,32,21.80
2015,05,21,11,33,21.90
2015,05,21,11,34,21.90
2015,05,21,11,35,21.90
2015,05,21,11,36,22.00
2015,05,21,11,37,22.00
2015,05,21,11,38,21.90
2015,05,21,11,39,21.90
2015,05,21,11,40,21.90
2015,05,21,11,41,21.90
2015,05,21,11,42,21.90
2015,05,21,11,43,22.00
2015,05,21,11,44,22.10
2015,05,21,11,45,22.10
2015,05,21,11,46,22.20
2015,05,21,11,47,22.20
2015,05,21,11,48,22.20
2015,05,21,11,49,22.20
2015,05,21,11,50,22.20
2015,05,21,11,51,22.30
2015,05,21,11,52,22.30
2015,05,21,11,53,22.40
2015,05,21,11,54,22.40
2015,05,21,11,55,22.30
2015,05,21,11,56,22.30
2015,05,21,11,57,22.30
2015,05,21,11,58,22.30
2015,05,21,11,59,22.30
2015,05,21,12,00,22.30
2015,05,21,12,01,22.20
2015,05,21,12,02,22.20
2015,05,21,12,03,22.10
2015,05,21,12,04,22.10
2015,05,21,12,05,22.10
2015,05,21,12,06,22.00
2015,05,21,12,07,22.00
2015,05,21,12,08,21.90
2015,05,21,12,09,21.80
2015,05,21,12,10,21.80
2015,05,21,12,11,21.80
2015,05,21,12,12,21.80
2015,05,21,12,13,21.80
2015,05,21,12,14,21.80
2015,05,21,12,15,21.90
2015,05,21,12,16,21.90
2015,05,21,12,17,21.90
2015,05,21,12,18,21.90
2015,05,21,12,19,21.90
2015,05,21,12,20,21.90
2015,05,21,12,21,21.90
2015,05,21,12,22,22.00
2015,05,21,12,23,22.00
2015,05,21,12,24,22.10
2015,05,21,12,25,22.00
2015,05,21,12,26,22.10
2015,05,21,12,27,22.20
2015,05,21,12,28,22.20
2015,05,21,12,29,22.20
2015,05,21,12,30,22.30
2015,05,21,12,31,22.30
2015,05,21,12,32,22.30
2015,05,21,12,33,22.40
2015,05,21,12,34,22.50
2015,05,21,12,35,22.60
2015,05,21,12,36,22.80
2015,05,21,12,37,22.90
2015,05,21,12,38,22.90
2015,05,21,12,39,23.00
2015,05,21,12,40,23.00
2015,05,21,12,41,23.00
2015,05,21,12,42,23.00
2015,05,21,12,43,23.00
2015,05,21,12,44,22.90
2015,05,21,12,45,22.90
2015,05,21,12,46,23.00
2015,05,21,12,47,23.00
2015,05,21,12,48,23.00
2015,05,21,12,49,23.00
2015,05,21,12,50,23.00
2015,05,21,12,51,22.90
2015,05,21,12,52,22.90
2015,05,21,12,53,22.80
2015,05,21,12,54,22.90
2015,05,21,12,55,22.90
2015,05,21,12,56,22.90
2015,05,21,12,57,22.90
2015,05,21,12,58,22.90
2015,05,21,12,59,22.90
2015,05,21,13,00,23.00
2015,05,21,13,01,23.10
2015,05,21,13,02,23.10
2015,05,21,13,03,23.10
2015,05,21,13,04,23.10
2015,05,21,13,05,23.10
2015,05,21,13,06,23.00
2015,05,21,13,07,23.00
2015,05,21,13,08,23.00
2015,05,21,13,09,23.00
2015,05,21,13,10,23.10
2015,05,21,13,11,23.20
2015,05,21,13,12,23.30
2015,05,21,13,13,23.40
2015,05,21,13,14,23.40
2015,05,21,13,15,23.40
2015,05,21,13,16,23.30
2015,05,21,13,17,23.20
2015,05,21,13,18,23.20
2015,05,21,13,19,23.20
2015,05,21,13,20,23.20
2015,05,21,13,21,23.20
2015,05,21,13,22,23.20
2015,05,21,13,23,23.10
2015,05,21,13,24,23.10
2015,05,21,13,25,23.10
2015,05,21,13,26,23.10
2015,05,21,13,27,23.10
2015,05,21,13,28,23.10
2015,05,21,13,29,23.20
2015,05,21,13,30,23.20
2015,05,21,13,31,23.20
2015,05,21,13,32,23.20
2015,05,21,13,33,23.30
2015,05,21,13,34,23.30
2015,05,21,13,35,23.40
2015,05,21,13,36,23.40
2015,05,21,13,37,23.50
2015,05,21,13,38,23.50
2015,05,21,13,39,23.40
2015,05,21,13,40,23.40
2015,05,21,13,41,23.40
2015,05,21,13,42,23.40
2015,05,21,13,43,23.50
2015,05,21,13,44,23.40
2015,05,21,13,45,23.40
2015,05,21,13,46,23.40
2015,05,21,13,47,23.30
2015,05,21,13,48,23.30
2015,05,21,13,49,23.30
2015,05,21,13,50,23.20
2015,05,21,13,51,23.30
2015,05,21,13,52,23.30
2015,05,21,13,53,23.40
2015,05,21,13,54,23.60
2015,05,21,13,55,23.60
2015,05,21,13,56,23.60
2015,05,21,13,57,23.60
2015,05,21,13,58,23.60
2015,05,21,13,59,23.70
2015,05,21,14,00,23.70
2015,05,21,14,01,23.70
2015,05,21,14,02,23.60
2015,05,21,14,03,23.50
2015,05,21,14,04,23.50
2015,05,21,14,05,23.50
2015,05,21,14,06,23.50
2015,05,21,14,07,23.50
2015,05,21,14,08,23.50
2015,05,21,14,09,23.50
2015,05,21,14,10,23.60
2015,05,21,14,11,23.60
2015,05,21,14,12,23.60
2015,05,21,14,13,23.60
2015,05,21,14,14,23.50
2015,05,21,14,15,23.40
2015,05,21,14,16,23.40
2015,05,21,14,17,23.40
2015,05,21,14,18,23.40
2015,05,21,14,19,23.40
2015,05,21,14,20,23.50
2015,05,21,14,21,23.60
2015,05,21,14,22,23.70
2015,05,21,14,23,23.70
2015,05,21,14,24,23.70
2015,05,21,14,25,23.70
2015,05,21,14,26,23.70
2015,05,21,14,27,23.70
2015,05,21,14,28,23.80
2015,05,21,14,29,23.80
2015,05,21,14,30,23.80
2015,05,21,14,31,23.80
2015,05,21,14,32,23.70
2015,05,21,14,33,23.70
2015,05,21,14,34,23.70
2015,05,21,14,35,23.70
2015,05,21,14,36,23.70
2015,05,21,14,37,23.70
2015,05,21,14,38,23.70
2015,05,21,14,39,23.70
2015,05,21,14,40,23.70
2015,05,21,14,41,23.70
2015,05,21,14,42,23.80
2015,05,21,14,43,23.80
2015,05,21,14,44,23.90
2015,05,21,14,45,23.90
2015,05,21,14,46,23.90
2015,05,21,14,47,24.00
2015,05,21,14,48,24.00
2015,05,21,14,49,24.10
2015,05,21,14,50,24.10
2015,05,21,14,51,24.20
2015,05,21,14,52,24.30
2015,05,21,14,53,24.20
2015,05,21,14,54,24.20
2015,05,21,14,55,24.30
2015,05,21,14,56,24.30
2015,05,21,14,57,24.30
2015,05,21,14,58,24.40
2015,05,21,14,59,24.40
2015,05,21,15,00,24.50
2015,05,21,15,01,24.50
2015,05,21,15,02,24.50
2015,05,21,15,03,24.60
2015,05,21,15,04,24.60
2015,05,21,15,05,24.60
2015,05,21,15,06,24.70
2015,05,21,15,07,24.90
2015,05,21,15,08,25.00
2015,05,21,15,09,25.10
2015,05,21,15,10,25.10
2015,05,21,15,11,25.10
2015,05,21,15,12,25.00
2015,05,21,15,13,25.10
2015,05,21,15,14,25.00
2015,05,21,15,15,24.90
2015,05,21,15,16,24.90
2015,05,21,15,17,24.80
2015,05,21,15,18,24.80
2015,05,21,15,19,24.90
2015,05,21,15,20,24.90
2015,05,21,15,21,25.00
2015,05,21,15,22,25.10
2015,05,21,15,23,25.10
2015,05,21,15,24,25.10
2015,05,21,15,25,25.10
2015,05,21,15,26,25.10
2015,05,21,15,27,25.10
2015,05,21,15,28,25.20
2015,05,21,15,29,25.20
2015,05,21,15,30,25.20
2015,05,21,15,31,25.30
2015,05,21,15,32,25.30
2015,05,21,15,33,25.40
2015,05,21,15,34,25.50
2015,05,21,15,35,25.50
2015,05,21,15,36,25.50
2015,05,21,15,37,25.50
2015,05,21,15,38,25.50
2015,05,21,15,39,25.40
2015,05,21,15,40,25.30
2015,05,21,15,41,25.30
2015,05,21,15,42,25.30
2015,05,21,15,43,25.30
2015,05,21,15,44,25.30
2015,05,21,15,45,25.20
2015,05,21,15,46,25.20
2015,05,21,15,47,25.10
2015,05,21,15,48,25.00
2015,05,21,15,49,24.90
2015,05,21,15,50,24.90
2015,05,21,15,51,24.90
2015,05,21,15,52,24.90
2015,05,21,15,53,24.90
2015,05,21,15,54,24.90
2015,05,21,15,55,24.90
2015,05,21,15,56,24.80
2015,05,21,15,57,24.80
2015,05,21,15,58,24.80
2015,05,21,15,59,24.70
2015,05,21,16,00,24.70
2015,05,21,16,01,24.70
2015,05,21,16,02,24.70
2015,05,21,16,03,24.70
2015,05,21,16,04,24.60
2015,05,21,16,05,24.50
2015,05,21,16,06,24.40
2015,05,21,16,07,24.40
2015,05,21,16,08,24.30
2015,05,21,16,09,24.20
2015,05,21,16,10,24.10
2015,05,21,16,11,24.10
2015,05,21,16,12,24.10
2015,05,21,16,13,24.00
2015,05,21,16,14,23.90
2015,05,21,16,15,23.90
2015,05,21,16,16,23.80
2015,05,21,16,17,23.80
2015,05,21,16,18,23.80
2015,05,21,16,19,23.80
2015,05,21,16,20,23.80
2015,05,21,16,21,23.70
2015,05,21,16,22,23.70
2015,05,21,16,23,23.70
2015,05,21,16,24,23.60
2015,05,21,16,25,23.60
2015,05,21,16,26,23.60
2015,05,21,16,27,23.50
2015,05,21,16,28,23.40
2015,05,21,16,29,23.30
2015,05,21,16,30,23.30
2015,05,21,16,31,23.20
2015,05,21,16,32,23.20
2015,05,21,16,33,23.20
2015,05,21,16,34,23.20
2015,05,21,16,35,23.30
2015,05,21,16,36,23.30
2015,05,21,16,37,23.30
2015,05,21,16,38,23.30
2015,05,21,16,39,23.40
2015,05,21,16,40,23.40
2015,05,21,16,41,23.40
2015,05,21,16,42,23.30
2015,05,21,16,43,23.30
2015,05,21,16,44,23.30
2015,05,21,16,45,23.30
2015,05,21,16,46,23.30
2015,05,21,16,47,23.20
2015,05,21,16,48,23.20
2015,05,21,16,49,23.20
2015,05,21,16,50,23.10
2015,05,21,16,51,23.10
2015,05,21,16,52,23.00
2015,05,21,16,53,23.00
2015,05,21,16,54,23.00
2015,05,21,16,55,23.00
2015,05,21,16,56,23.00
2015,05,21,16,57,22.90
2015,05,21,16,58,22.90
2015,05,21,16,59,22.90
2015,05,21,17,00,22.90
2015,05,21,17,01,22.90
2015,05,21,17,02,22.90
2015,05,21,17,03,22.90
2015,05,21,17,04,22.90
2015,05,21,17,05,22.90
2015,05,21,17,06,22.90
2015,05,21,17,07,22.90
2015,05,21,17,08,22.90
2015,05,21,17,09,23.00
2015,05,21,17,10,23.00
2015,05,21,17,11,23.00
2015,05,21,17,12,23.00
2015,05,21,17,13,23.00
2015,05,21,17,14,23.00
2015,05,21,17,15,23.00
2015,05,21,17,16,23.00
2015,05,21,17,17,23.00
2015,05,21,17,18,23.00
2015,05,21,17,19,23.00
2015,05,21,17,20,23.00
2015,05,21,17,21,22.90
2015,05,21,17,22,22.90
2015,05,21,17,23,22.80
2015,05,21,17,24,22.80
2015,05,21,17,25,22.70
2015,05,21,17,26,22.60
2015,05,21,17,27,22.50
2015,05,21,17,28,22.40
2015,05,21,17,29,22.30
2015,05,21,17,30,22.20
2015,05,21,17,31,22.10
2015,05,21,17,32,22.00
2015,05,21,17,33,21.90
2015,05,21,17,34,21.80
2015,05,21,17,35,21.70
2015,05,21,17,36,21.70
2015,05,21,17,37,21.60
2015,05,21,17,38,21.50
2015,05,21,17,39,21.40
2015,05,21,17,40,21.40
2015,05,21,17,41,21.30
2015,05,21,17,42,21.30
2015,05,21,17,43,21.20
2015,05,21,17,44,21.20
2015,05,21,17,45,21.20
2015,05,21,17,46,21.20
2015,05,21,17,47,21.20
2015,05,21,17,48,21.20
2015,05,21,17,49,21.20
2015,05,21,17,50,21.20
2015,05,21,17,51,21.20
2015,05,21,17,52,21.30
2015,05,21,17,53,21.30
2015,05,21,17,54,21.30
2015,05,21,17,55,21.30
2015,05,21,17,56,21.30
2015,05,21,17,57,21.30
2015,05,21,17,58,21.30
2015,05,21,17,59,21.30
2015,05,21,18,00,21.30
2015,05,21,18,01,21.30
2015,05,21,18,02,21.40
2015,05,21,18,03,21.40
2015,05,21,18,04,21.40
2015,05,21,18,05,21.40
2015,05,21,18,06,21.40
2015,05,21,18,07,21.40
2015,05,21,18,08,21.40
2015,05,21,18,09,21.40
2015,05,21,18,10,21.40
2015,05,21,18,11,21.40